| time (UTC) | temp F | wind direction | speed MPH | gust MPH | rain 1hr in | rain 24hr in | rain mn in | humidity % | barometer mb |
| 20260831014535 | 92 | 0 | 0.0 | 4.0 | 0.00 | 0.00 | 0.00 | 42 | 1013.1 |
| 20260831014019 | 92 | 205 | 0.0 | 4.0 | 0.00 | 0.00 | 0.00 | 43 | 1012.9 |
| 20260831013517 | 92 | 190 | 0.0 | 5.0 | 0.00 | 0.00 | 0.00 | 45 | 1012.9 |
| 20260831013040 | 92 | 202 | 1.0 | 5.0 | 0.00 | 0.00 | 0.00 | 43 | 1012.8 |
| 20260831012518 | 93 | 0 | 0.0 | 4.0 | 0.00 | 0.00 | 0.00 | 49 | 1012.8 |
| 20260831012019 | 94 | 0 | 0.0 | 6.0 | 0.00 | 0.00 | 0.00 | 38 | 1012.9 |
| 20260831011541 | 95 | 170 | 1.0 | 6.0 | 0.00 | 0.00 | 0.00 | 37 | 1012.8 |
| 20260831011018 | 95 | 0 | 0.0 | 6.0 | 0.00 | 0.00 | 0.00 | 37 | 1012.9 |
| 20260831010517 | 95 | 0 | 1.0 | 6.0 | 0.00 | 0.00 | 0.00 | 38 | 1012.9 |
| 20260831010106 | 95 | 179 | 1.0 | 7.0 | 0.00 | 0.00 | 0.00 | 37 | 1012.9 |
| 20260831005519 | 95 | 185 | 1.0 | 7.0 | 0.00 | 0.00 | 0.00 | 38 | 1012.9 |
| 20260831005018 | 95 | 214 | 1.0 | 7.0 | 0.00 | 0.00 | 0.00 | 38 | 1012.9 |
| 20260831004547 | 95 | 0 | 1.0 | 10.0 | 0.00 | 0.00 | 0.00 | 38 | 1012.8 |
| 20260831004016 | 96 | 186 | 2.0 | 10.0 | 0.00 | 0.00 | 0.00 | 38 | 1012.8 |
| 20260831003519 | 96 | 218 | 1.0 | 7.0 | 0.00 | 0.00 | 0.00 | 38 | 1012.8 |
| 20260831003040 | 96 | 124 | 2.0 | 8.0 | 0.00 | 0.00 | 0.00 | 37 | 1012.8 |
| 20260831002519 | 96 | 202 | 1.0 | 8.0 | 0.00 | 0.00 | 0.00 | 37 | 1012.8 |
| 20260831002018 | 96 | 196 | 2.0 | 7.0 | 0.00 | 0.00 | 0.00 | 37 | 1012.7 |
| 20260831001552 | 97 | 200 | 2.0 | 8.0 | 0.00 | 0.00 | 0.00 | 37 | 1012.7 |
| 20260831001023 | 97 | 207 | 2.0 | 8.0 | 0.00 | 0.00 | 0.00 | 36 | 1012.8 |
| 20260831000518 | 97 | 220 | 1.0 | 8.0 | 0.00 | 0.00 | 0.00 | 36 | 1012.9 |
| 20260831000040 | 97 | 204 | 2.0 | 9.0 | 0.00 | 0.00 | 0.00 | 35 | 1012.9 |
| 20260830235520 | 97 | 0 | 2.0 | 9.0 | 0.00 | 0.00 | 0.00 | 35 | 1013.0 |
| 20260830235019 | 97 | 191 | 1.0 | 10.0 | 0.00 | 0.00 | 0.00 | 35 | 1013.0 |
| 20260830234536 | 97 | 198 | 2.0 | 13.0 | 0.00 | 0.00 | 0.00 | 35 | 1013.1 |
| 20260830234021 | 98 | 151 | 5.0 | 13.0 | 0.00 | 0.00 | 0.00 | 34 | 1013.0 |
| 20260830233520 | 98 | 206 | 0.0 | 9.0 | 0.00 | 0.00 | 0.00 | 35 | 1013.0 |
| 20260830233036 | 98 | 186 | 3.0 | 8.0 | 0.00 | 0.00 | 0.00 | 35 | 1013.1 |
| 20260830232522 | 98 | 200 | 2.0 | 9.0 | 0.00 | 0.00 | 0.00 | 34 | 1013.0 |
| 20260830232020 | 98 | 0 | 2.0 | 10.0 | 0.00 | 0.00 | 0.00 | 34 | 1013.1 |
| 20260830231536 | 98 | 181 | 3.0 | 12.0 | 0.00 | 0.00 | 0.00 | 34 | 1013.1 |
| 20260830231019 | 98 | 222 | 4.0 | 12.0 | 0.00 | 0.00 | 0.00 | 33 | 1013.1 |
| 20260830230519 | 98 | 203 | 1.0 | 8.0 | 0.00 | 0.00 | 0.00 | 33 | 1013.2 |
| 20260830230048 | 99 | 183 | 2.0 | 8.0 | 0.00 | 0.00 | 0.00 | 32 | 1013.3 |
| 20260830225518 | 99 | 229 | 2.0 | 10.0 | 0.00 | 0.00 | 0.00 | 32 | 1013.1 |
| 20260830225019 | 99 | 247 | 3.0 | 10.0 | 0.00 | 0.00 | 0.00 | 31 | 1013.3 |
| 20260830224547 | 99 | 217 | 3.0 | 10.0 | 0.00 | 0.00 | 0.00 | 31 | 1013.3 |
| 20260830224020 | 99 | 0 | 1.0 | 10.0 | 0.00 | 0.00 | 0.00 | 31 | 1013.4 |
| 20260830223523 | 99 | 192 | 3.0 | 8.0 | 0.00 | 0.00 | 0.00 | 31 | 1013.5 |
| 20260830223040 | 100 | 187 | 3.0 | 9.0 | 0.00 | 0.00 | 0.00 | 31 | 1013.5 |
| 20260830222520 | 100 | 251 | 1.0 | 9.0 | 0.00 | 0.00 | 0.00 | 31 | 1013.4 |
| 20260830222024 | 100 | 190 | 2.0 | 8.0 | 0.00 | 0.00 | 0.00 | 31 | 1013.3 |
| 20260830221537 | 100 | 205 | 2.0 | 9.0 | 0.00 | 0.00 | 0.00 | 31 | 1013.3 |
| 20260830221020 | 100 | 175 | 2.0 | 9.0 | 0.00 | 0.00 | 0.00 | 32 | 1013.4 |
| 20260830220518 | 100 | 181 | 0.0 | 8.0 | 0.00 | 0.00 | 0.00 | 32 | 1013.3 |
| 20260830220045 | 101 | 208 | 3.0 | 15.0 | 0.00 | 0.00 | 0.00 | 30 | 1013.4 |
| 20260830215521 | 101 | 217 | 4.0 | 15.0 | 0.00 | 0.00 | 0.00 | 30 | 1013.4 |
| 20260830215018 | 101 | 156 | 5.0 | 11.0 | 0.00 | 0.00 | 0.00 | 31 | 1013.4 |
| 20260830214544 | 100 | 207 | 1.0 | 9.0 | 0.00 | 0.00 | 0.00 | 33 | 1013.4 |
| 20260830214019 | 99 | 114 | 1.0 | 10.0 | 0.00 | 0.00 | 0.00 | 33 | 1013.4 |
| 20260830213524 | 100 | 188 | 3.0 | 10.0 | 0.00 | 0.00 | 0.00 | 32 | 1013.6 |
| 20260830213038 | 102 | 174 | 3.0 | 9.0 | 0.00 | 0.00 | 0.00 | 31 | 1013.7 |
| 20260830212521 | 102 | 227 | 3.0 | 10.0 | 0.00 | 0.00 | 0.00 | 31 | 1013.7 |
| 20260830212020 | 101 | 0 | 1.0 | 10.0 | 0.00 | 0.00 | 0.00 | 32 | 1013.7 |
| 20260830211538 | 100 | 208 | 1.0 | 6.0 | 0.00 | 0.00 | 0.00 | 34 | 1013.7 |
| 20260830211020 | 99 | 193 | 2.0 | 9.0 | 0.00 | 0.00 | 0.00 | 34 | 1013.8 |
| 20260830210517 | 99 | 0 | 0.0 | 9.0 | 0.00 | 0.00 | 0.00 | 33 | 1013.8 |
| 20260830210041 | 100 | 214 | 3.0 | 9.0 | 0.00 | 0.00 | 0.00 | 32 | 1013.9 |
| 20260830205520 | 101 | 191 | 2.0 | 11.0 | 0.00 | 0.00 | 0.00 | 31 | 1014.0 |
| 20260830205018 | 102 | 0 | 2.0 | 11.0 | 0.00 | 0.00 | 0.00 | 31 | 1014.0 |
| 20260830204541 | 102 | 162 | 3.0 | 11.0 | 0.00 | 0.00 | 0.00 | 32 | 1014.1 |
| 20260830204019 | 102 | 185 | 3.0 | 11.0 | 0.00 | 0.00 | 0.00 | 32 | 1014.2 |
| 20260830203523 | 101 | 233 | 2.0 | 13.0 | 0.00 | 0.00 | 0.00 | 33 | 1014.2 |
| 20260830203040 | 101 | 161 | 3.0 | 13.0 | 0.00 | 0.00 | 0.00 | 33 | 1014.3 |
| 20260830202520 | 101 | 214 | 2.0 | 8.0 | 0.00 | 0.00 | 0.00 | 33 | 1014.4 |
| 20260830202019 | 101 | 214 | 1.0 | 11.0 | 0.00 | 0.00 | 0.00 | 33 | 1014.4 |
| 20260830201539 | 101 | 230 | 3.0 | 11.0 | 0.00 | 0.00 | 0.00 | 33 | 1014.6 |
| 20260830201018 | 103 | 171 | 2.0 | 10.0 | 0.00 | 0.00 | 0.00 | 31 | 1014.6 |
| 20260830200517 | 102 | 185 | 1.0 | 7.0 | 0.00 | 0.00 | 0.00 | 32 | 1014.5 |
| 20260830200041 | 103 | 229 | 1.0 | 8.0 | 0.00 | 0.00 | 0.00 | 32 | 1014.6 |
| 20260830195519 | 102 | 162 | 2.0 | 8.0 | 0.00 | 0.00 | 0.00 | 33 | 1014.7 |
| 20260830195017 | 101 | 267 | 1.0 | 10.0 | 0.00 | 0.00 | 0.00 | 34 | 1014.8 |
| 20260830194539 | 101 | 0 | 4.0 | 12.0 | 0.00 | 0.00 | 0.00 | 34 | 1014.9 |
| 20260830194016 | 100 | 175 | 3.0 | 12.0 | 0.00 | 0.00 | 0.00 | 35 | 1015.0 |
| 20260830193524 | 100 | 212 | 5.0 | 12.0 | 0.00 | 0.00 | 0.00 | 34 | 1014.8 |
| 20260830193037 | 100 | 164 | 3.0 | 11.0 | 0.00 | 0.00 | 0.00 | 34 | 1014.9 |
| 20260830192520 | 101 | 0 | 3.0 | 12.0 | 0.00 | 0.00 | 0.00 | 34 | 1015.1 |
| 20260830192018 | 100 | 159 | 3.0 | 13.0 | 0.00 | 0.00 | 0.00 | 35 | 1015.1 |
| 20260830191537 | 99 | 225 | 4.0 | 13.0 | 0.00 | 0.00 | 0.00 | 36 | 1015.3 |
| 20260830191020 | 99 | 170 | 4.0 | 12.0 | 0.00 | 0.00 | 0.00 | 36 | 1015.3 |
| 20260830190520 | 99 | 149 | 4.0 | 12.0 | 0.00 | 0.00 | 0.00 | 37 | 1015.3 |
| 20260830190043 | 99 | 168 | 2.0 | 10.0 | 0.00 | 0.00 | 0.00 | 36 | 1015.3 |
| 20260830185520 | 100 | 230 | 3.0 | 10.0 | 0.00 | 0.00 | 0.00 | 35 | 1015.3 |
| 20260830185019 | 99 | 125 | 2.0 | 10.0 | 0.00 | 0.00 | 0.00 | 36 | 1015.3 |
| 20260830184539 | 99 | 237 | 3.0 | 10.0 | 0.00 | 0.00 | 0.00 | 37 | 1015.3 |
| 20260830184021 | 98 | 234 | 3.0 | 10.0 | 0.00 | 0.00 | 0.00 | 38 | 1015.3 |
| 20260830183526 | 98 | 224 | 3.0 | 10.0 | 0.00 | 0.00 | 0.00 | 38 | 1015.6 |
| 20260830183037 | 98 | 0 | 2.0 | 11.0 | 0.00 | 0.00 | 0.00 | 38 | 1015.4 |
| 20260830182519 | 98 | 218 | 3.0 | 11.0 | 0.00 | 0.00 | 0.00 | 37 | 1015.5 |
| 20260830182018 | 98 | 233 | 3.0 | 9.0 | 0.00 | 0.00 | 0.00 | 37 | 1015.6 |
| 20260830181548 | 98 | 161 | 2.0 | 12.0 | 0.00 | 0.00 | 0.00 | 39 | 1015.7 |
| 20260830181020 | 98 | 243 | 5.0 | 12.0 | 0.00 | 0.00 | 0.00 | 39 | 1015.9 |
| 20260830180517 | 98 | 214 | 3.0 | 10.0 | 0.00 | 0.00 | 0.00 | 39 | 1015.9 |
| 20260830180053 | 98 | 268 | 3.0 | 11.0 | 0.00 | 0.00 | 0.00 | 39 | 1016.0 |
| 20260830175520 | 98 | 222 | 4.0 | 11.0 | 0.00 | 0.00 | 0.00 | 39 | 1016.0 |
| 20260830175020 | 97 | 214 | 3.0 | 11.0 | 0.00 | 0.00 | 0.00 | 40 | 1016.1 |
| 20260830174541 | 97 | 188 | 4.0 | 11.0 | 0.00 | 0.00 | 0.00 | 41 | 1016.1 |
| 20260830174026 | 97 | 162 | 4.0 | 11.0 | 0.00 | 0.00 | 0.00 | 40 | 1016.2 |
| 20260830173519 | 97 | 183 | 2.0 | 8.0 | 0.00 | 0.00 | 0.00 | 42 | 1016.3 |
| 20260830173059 | 96 | 223 | 1.0 | 10.0 | 0.00 | 0.00 | 0.00 | 43 | 1016.4 |
| 20260830172516 | 96 | 210 | 3.0 | 10.0 | 0.00 | 0.00 | 0.00 | 43 | 1016.4 |
| 20260830172021 | 96 | 252 | 3.0 | 9.0 | 0.00 | 0.00 | 0.00 | 44 | 1016.6 |
| 20260830171550 | 96 | 231 | 3.0 | 11.0 | 0.00 | 0.00 | 0.00 | 45 | 1016.7 |
| 20260830171025 | 95 | 0 | 0.0 | 11.0 | 0.00 | 0.00 | 0.00 | 45 | 1016.6 |
| 20260830170517 | 95 | 262 | 5.0 | 11.0 | 0.00 | 0.00 | 0.00 | 45 | 1016.6 |
| 20260830170045 | 95 | 220 | 1.0 | 9.0 | 0.00 | 0.00 | 0.00 | 46 | 1016.7 |
| 20260830165519 | 95 | 218 | 3.0 | 9.0 | 0.00 | 0.00 | 0.00 | 45 | 1016.7 |
| 20260830165019 | 95 | 158 | 3.0 | 8.0 | 0.00 | 0.00 | 0.00 | 47 | 1016.7 |
| 20260830164535 | 95 | 175 | 1.0 | 6.0 | 0.00 | 0.00 | 0.00 | 47 | 1016.6 |
| 20260830164017 | 95 | 0 | 0.0 | 6.0 | 0.00 | 0.00 | 0.00 | 48 | 1016.6 |
| 20260830163524 | 94 | 0 | 1.0 | 9.0 | 0.00 | 0.00 | 0.00 | 49 | 1016.7 |
| 20260830163038 | 93 | 0 | 1.0 | 9.0 | 0.00 | 0.00 | 0.00 | 50 | 1016.7 |
| 20260830162521 | 93 | 200 | 2.0 | 9.0 | 0.00 | 0.00 | 0.00 | 51 | 1017.0 |
| 20260830162019 | 93 | 205 | 1.0 | 8.0 | 0.00 | 0.00 | 0.00 | 51 | 1017.0 |
| 20260830161542 | 93 | 226 | 1.0 | 5.0 | 0.00 | 0.00 | 0.00 | 51 | 1017.0 |
| 20260830161020 | 92 | 293 | 1.0 | 6.0 | 0.00 | 0.00 | 0.00 | 52 | 1016.9 |
| 20260830160517 | 92 | 233 | 2.0 | 10.0 | 0.00 | 0.00 | 0.00 | 53 | 1016.9 |
| 20260830160036 | 92 | 204 | 2.0 | 10.0 | 0.00 | 0.00 | 0.00 | 53 | 1016.9 |
| 20260830155522 | 92 | 0 | 1.0 | 8.0 | 0.00 | 0.00 | 0.00 | 54 | 1016.8 |
| 20260830155016 | 91 | 206 | 3.0 | 9.0 | 0.00 | 0.00 | 0.00 | 54 | 1016.8 |
| 20260830154535 | 91 | 225 | 2.0 | 9.0 | 0.00 | 0.00 | 0.00 | 54 | 1016.8 |
| 20260830154020 | 91 | 181 | 2.0 | 7.0 | 0.00 | 0.00 | 0.00 | 55 | 1016.8 |
| 20260830153518 | 91 | 223 | 2.0 | 6.0 | 0.00 | 0.00 | 0.00 | 55 | 1016.9 |
| 20260830153038 | 90 | 200 | 1.0 | 6.0 | 0.00 | 0.00 | 0.00 | 56 | 1017.0 |
| 20260830152519 | 90 | 208 | 0.0 | 7.0 | 0.00 | 0.00 | 0.00 | 57 | 1017.0 |
| 20260830152018 | 89 | 222 | 1.0 | 7.0 | 0.00 | 0.00 | 0.00 | 57 | 1016.8 |
| 20260830151540 | 89 | 200 | 0.0 | 8.0 | 0.00 | 0.00 | 0.00 | 59 | 1016.9 |
| 20260830151018 | 88 | 0 | 1.0 | 8.0 | 0.00 | 0.00 | 0.00 | 59 | 1016.8 |
| 20260830150520 | 88 | 215 | 0.0 | 4.0 | 0.00 | 0.00 | 0.00 | 60 | 1016.8 |
| 20260830150037 | 87 | 213 | 0.0 | 6.0 | 0.00 | 0.00 | 0.00 | 61 | 1016.8 |
| 20260830145520 | 87 | 0 | 1.0 | 6.0 | 0.00 | 0.00 | 0.00 | 62 | 1016.9 |
| 20260830145019 | 86 | 189 | 2.0 | 6.0 | 0.00 | 0.00 | 0.00 | 63 | 1016.8 |
| 20260830144537 | 86 | 159 | 1.0 | 6.0 | 0.00 | 0.00 | 0.00 | 64 | 1016.8 |
| 20260830144021 | 85 | 201 | 0.0 | 6.0 | 0.00 | 0.00 | 0.00 | 65 | 1016.8 |
| 20260830143517 | 85 | 203 | 2.0 | 6.0 | 0.00 | 0.00 | 0.00 | 65 | 1016.8 |
| 20260830143036 | 85 | 176 | 1.0 | 6.0 | 0.00 | 0.00 | 0.00 | 65 | 1016.8 |
| 20260830142520 | 84 | 0 | 2.0 | 6.0 | 0.00 | 0.00 | 0.00 | 66 | 1016.9 |
| 20260830142018 | 84 | 222 | 1.0 | 5.0 | 0.00 | 0.00 | 0.00 | 66 | 1017.1 |
| 20260830141536 | 84 | 184 | 2.0 | 4.0 | 0.00 | 0.00 | 0.00 | 66 | 1017.0 |
| 20260830141019 | 84 | 0 | 0.0 | 2.0 | 0.00 | 0.00 | 0.00 | 67 | 1017.0 |
| 20260830140523 | 83 | 0 | 0.0 | 3.0 | 0.00 | 0.00 | 0.00 | 67 | 1017.0 |
| 20260830140037 | 83 | 212 | 1.0 | 4.0 | 0.00 | 0.00 | 0.00 | 68 | 1017.0 |
| 20260830135521 | 83 | 222 | 1.0 | 5.0 | 0.00 | 0.00 | 0.00 | 68 | 1016.9 |
| 20260830135024 | 83 | 191 | 2.0 | 6.0 | 0.00 | 0.00 | 0.00 | 68 | 1016.9 |
| 20260830134546 | 83 | 0 | 1.0 | 6.0 | 0.00 | 0.00 | 0.00 | 69 | 1016.9 |
| 20260830134018 | 82 | 160 | 2.0 | 7.0 | 0.00 | 0.00 | 0.00 | 69 | 1017.0 |
| 20260830133518 | 82 | 198 | 1.0 | 7.0 | 0.00 | 0.00 | 0.00 | 69 | 1016.9 |
| 20260830133040 | 82 | 0 | 1.0 | 6.0 | 0.00 | 0.00 | 0.00 | 70 | 1016.8 |
| 20260830132520 | 82 | 212 | 0.0 | 6.0 | 0.00 | 0.00 | 0.00 | 70 | 1016.8 |
| 20260830132020 | 82 | 0 | 0.0 | 4.0 | 0.00 | 0.00 | 0.00 | 70 | 1016.7 |
| 20260830131545 | 81 | 0 | 0.0 | 4.0 | 0.00 | 0.00 | 0.00 | 70 | 1016.6 |
| 20260830131019 | 81 | 0 | 0.0 | 6.0 | 0.00 | 0.00 | 0.00 | 70 | 1016.6 |
| 20260830130518 | 81 | 191 | 1.0 | 6.0 | 0.00 | 0.00 | 0.00 | 70 | 1016.6 |
| 20260830130038 | 81 | 0 | 0.0 | 6.0 | 0.00 | 0.00 | 0.00 | 70 | 1016.5 |
| 20260830125520 | 81 | 0 | 1.0 | 6.0 | 0.00 | 0.00 | 0.00 | 70 | 1016.5 |
| 20260830125019 | 81 | 190 | 0.0 | 4.0 | 0.00 | 0.00 | 0.00 | 70 | 1016.3 |
| 20260830124537 | 81 | 0 | 0.0 | 3.0 | 0.00 | 0.00 | 0.00 | 70 | 1016.3 |
| 20260830124019 | 81 | 0 | 0.0 | 5.0 | 0.00 | 0.00 | 0.00 | 70 | 1016.2 |
| 20260830123515 | 80 | 198 | 1.0 | 5.0 | 0.00 | 0.00 | 0.00 | 70 | 1016.1 |
| 20260830123038 | 80 | 0 | 0.0 | 3.0 | 0.00 | 0.00 | 0.00 | 70 | 1016.1 |
| 20260830122519 | 80 | 0 | 0.0 | 4.0 | 0.00 | 0.00 | 0.00 | 70 | 1016.0 |
| 20260830122019 | 80 | 204 | 0.0 | 4.0 | 0.00 | 0.00 | 0.00 | 70 | 1016.0 |
| 20260830121538 | 80 | 0 | 0.0 | 3.0 | 0.00 | 0.00 | 0.00 | 70 | 1015.9 |
| 20260830121018 | 80 | 208 | 0.0 | 3.0 | 0.00 | 0.00 | 0.00 | 69 | 1015.8 |
| 20260830120520 | 80 | 0 | 0.0 | 3.0 | 0.00 | 0.00 | 0.00 | 69 | 1015.8 |
| 20260830120034 | 80 | 0 | 0.0 | 3.0 | 0.00 | 0.00 | 0.00 | 69 | 1015.8 |
| 20260830115518 | 80 | 0 | 0.0 | 4.0 | 0.00 | 0.00 | 0.00 | 69 | 1015.7 |
| 20260830115021 | 81 | 0 | 0.0 | 4.0 | 0.00 | 0.00 | 0.00 | 68 | 1015.6 |
| 20260830114542 | 81 | 0 | 0.0 | 4.0 | 0.00 | 0.00 | 0.00 | 68 | 1015.5 |
| 20260830114018 | 81 | 0 | 0.0 | 4.0 | 0.00 | 0.00 | 0.00 | 67 | 1015.5 |
| 20260830113518 | 81 | 0 | 0.0 | 3.0 | 0.00 | 0.00 | 0.00 | 67 | 1015.4 |
| 20260830113040 | 81 | 0 | 0.0 | 2.0 | 0.00 | 0.00 | 0.00 | 67 | 1015.3 |
| 20260830112519 | 81 | 192 | 0.0 | 4.0 | 0.00 | 0.00 | 0.00 | 66 | 1015.3 |
| 20260830112025 | 81 | 0 | 0.0 | 4.0 | 0.00 | 0.00 | 0.00 | 65 | 1015.4 |
| 20260830111539 | 82 | 0 | 0.0 | 6.0 | 0.00 | 0.00 | 0.00 | 64 | 1015.3 |
| 20260830111020 | 82 | 0 | 1.0 | 6.0 | 0.00 | 0.00 | 0.00 | 64 | 1015.3 |
| 20260830110520 | 82 | 0 | 0.0 | 4.0 | 0.00 | 0.00 | 0.00 | 64 | 1015.3 |
| 20260830110041 | 82 | 208 | 0.0 | 5.0 | 0.00 | 0.00 | 0.00 | 63 | 1015.2 |
| 20260830105520 | 82 | 210 | 1.0 | 5.0 | 0.00 | 0.00 | 0.00 | 63 | 1015.1 |
| 20260830105019 | 82 | 204 | 0.0 | 6.0 | 0.00 | 0.00 | 0.00 | 63 | 1015.0 |
| 20260830104536 | 82 | 0 | 1.0 | 6.0 | 0.00 | 0.00 | 0.00 | 62 | 1014.9 |
| 20260830104016 | 82 | 0 | 0.0 | 4.0 | 0.00 | 0.00 | 0.00 | 62 | 1015.1 |
| 20260830103515 | 83 | 203 | 0.0 | 5.0 | 0.00 | 0.00 | 0.00 | 61 | 1015.0 |
| 20260830103037 | 83 | 211 | 1.0 | 5.0 | 0.00 | 0.00 | 0.00 | 61 | 1015.0 |
| 20260830102517 | 83 | 202 | 0.0 | 4.0 | 0.00 | 0.00 | 0.00 | 61 | 1015.0 |
| 20260830102018 | 83 | 0 | 0.0 | 3.0 | 0.00 | 0.00 | 0.00 | 61 | 1014.9 |
| 20260830101536 | 83 | 0 | 0.0 | 5.0 | 0.00 | 0.00 | 0.00 | 61 | 1014.7 |
| 20260830101019 | 83 | 0 | 0.0 | 5.0 | 0.00 | 0.00 | 0.00 | 60 | 1014.8 |
| 20260830100517 | 83 | 0 | 0.0 | 5.0 | 0.00 | 0.00 | 0.00 | 60 | 1014.9 |
| 20260830100036 | 83 | 0 | 0.0 | 5.0 | 0.00 | 0.00 | 0.00 | 59 | 1014.8 |
| 20260830095520 | 83 | 0 | 0.0 | 3.0 | 0.00 | 0.00 | 0.00 | 60 | 1014.8 |
| 20260830095016 | 82 | 185 | 0.0 | 3.0 | 0.00 | 0.00 | 0.00 | 60 | 1014.9 |
| 20260830094538 | 82 | 0 | 0.0 | 2.0 | 0.00 | 0.00 | 0.00 | 59 | 1014.9 |
| 20260830094024 | 83 | 0 | 0.0 | 4.0 | 0.00 | 0.00 | 0.00 | 59 | 1014.9 |
| 20260830093521 | 83 | 0 | 0.0 | 4.0 | 0.00 | 0.00 | 0.00 | 58 | 1014.9 |
| 20260830093053 | 83 | 0 | 0.0 | 2.0 | 0.00 | 0.00 | 0.00 | 58 | 1014.8 |
| 20260830092518 | 83 | 0 | 0.0 | 1.0 | 0.00 | 0.00 | 0.00 | 58 | 1014.8 |
| 20260830092017 | 83 | 0 | 0.0 | 2.0 | 0.00 | 0.00 | 0.00 | 58 | 1014.7 |
| 20260830091536 | 83 | 0 | 0.0 | 2.0 | 0.00 | 0.00 | 0.00 | 57 | 1014.8 |
| 20260830091020 | 83 | 0 | 0.0 | 1.0 | 0.00 | 0.00 | 0.00 | 57 | 1014.7 |
| 20260830090518 | 83 | 0 | 0.0 | 0.0 | 0.00 | 0.00 | 0.00 | 57 | 1014.7 |
| 20260830090047 | 83 | 0 | 0.0 | 0.0 | 0.00 | 0.00 | 0.00 | 56 | 1014.7 |
| 20260830085518 | 83 | 0 | 0.0 | 0.0 | 0.00 | 0.00 | 0.00 | 56 | 1014.9 |
| 20260830085020 | 83 | 0 | 0.0 | 1.0 | 0.00 | 0.00 | 0.00 | 57 | 1014.8 |
| 20260830084536 | 83 | 0 | 0.0 | 1.0 | 0.00 | 0.00 | 0.00 | 56 | 1014.7 |
| 20260830084017 | 83 | 0 | 0.0 | 0.0 | 0.00 | 0.00 | 0.00 | 56 | 1014.8 |
| 20260830083517 | 84 | 0 | 0.0 | 0.0 | 0.00 | 0.00 | 0.00 | 56 | 1014.8 |
| 20260830083036 | 84 | 0 | 0.0 | 0.0 | 0.00 | 0.00 | 0.00 | 55 | 1014.9 |
| 20260830082519 | 84 | 0 | 0.0 | 2.0 | 0.00 | 0.00 | 0.00 | 55 | 1015.0 |
| 20260830082016 | 83 | 0 | 0.0 | 2.0 | 0.00 | 0.00 | 0.00 | 55 | 1015.0 |
| 20260830081535 | 84 | 0 | 0.0 | 1.0 | 0.00 | 0.00 | 0.00 | 55 | 1014.9 |
| 20260830081018 | 84 | 0 | 0.0 | 0.0 | 0.00 | 0.00 | 0.00 | 54 | 1014.8 |
| 20260830080520 | 84 | 0 | 0.0 | 0.0 | 0.00 | 0.00 | 0.00 | 55 | 1014.8 |
| 20260830080043 | 84 | 0 | 0.0 | 0.0 | 0.00 | 0.00 | 0.00 | 54 | 1014.8 |
| 20260830075520 | 84 | 0 | 0.0 | 1.0 | 0.00 | 0.00 | 0.00 | 53 | 1014.8 |
| 20260830075022 | 85 | 0 | 0.0 | 1.0 | 0.00 | 0.00 | 0.00 | 53 | 1014.9 |
| 20260830074603 | 85 | 0 | 0.0 | 1.0 | 0.00 | 0.00 | 0.00 | 53 | 1014.9 |
| 20260830074020 | 85 | 0 | 0.0 | 2.0 | 0.00 | 0.00 | 0.00 | 52 | 1015.0 |
| 20260830073516 | 85 | 0 | 0.0 | 2.0 | 0.00 | 0.00 | 0.00 | 52 | 1015.1 |
| 20260830073038 | 85 | 0 | 0.0 | 2.0 | 0.00 | 0.00 | 0.00 | 52 | 1015.1 |
| 20260830072522 | 86 | 0 | 0.0 | 1.0 | 0.00 | 0.00 | 0.00 | 52 | 1015.1 |
| 20260830072023 | 86 | 0 | 0.0 | 1.0 | 0.00 | 0.00 | 0.00 | 52 | 1015.1 |
| 20260830071540 | 86 | 0 | 0.0 | 2.0 | 0.00 | 0.00 | 0.00 | 52 | 1015.2 |
| 20260830071024 | 86 | 0 | 0.0 | 3.0 | 0.00 | 0.00 | 0.00 | 51 | 1015.3 |
| 20260830070518 | 86 | 0 | 0.0 | 3.0 | 0.00 | 0.00 | 0.00 | 51 | 1015.2 |
| 20260830070049 | 87 | 0 | 0.0 | 3.0 | 0.00 | 0.00 | 0.00 | 50 | 1015.2 |
| 20260830065516 | 87 | 0 | 0.0 | 3.0 | 0.00 | 0.00 | 0.00 | 50 | 1015.2 |
| 20260830065025 | 87 | 0 | 0.0 | 2.0 | 0.00 | 0.00 | 0.00 | 50 | 1015.3 |
| 20260830064540 | 87 | 0 | 0.0 | 2.0 | 0.00 | 0.00 | 0.00 | 50 | 1015.3 |
| 20260830064020 | 87 | 0 | 0.0 | 2.0 | 0.00 | 0.00 | 0.00 | 50 | 1015.3 |
| 20260830063520 | 87 | 0 | 0.0 | 2.0 | 0.00 | 0.00 | 0.00 | 50 | 1015.3 |
| 20260830063041 | 87 | 0 | 0.0 | 2.0 | 0.00 | 0.00 | 0.00 | 49 | 1015.1 |
| 20260830062519 | 88 | 138 | 0.0 | 5.0 | 0.00 | 0.00 | 0.00 | 49 | 1015.2 |
| 20260830062019 | 88 | 0 | 1.0 | 5.0 | 0.00 | 0.00 | 0.00 | 48 | 1015.2 |
| 20260830061541 | 88 | 0 | 0.0 | 3.0 | 0.00 | 0.00 | 0.00 | 48 | 1015.1 |
| 20260830061019 | 88 | 0 | 0.0 | 2.0 | 0.00 | 0.00 | 0.00 | 48 | 1015.1 |
| 20260830060520 | 88 | 0 | 0.0 | 3.0 | 0.00 | 0.00 | 0.00 | 48 | 1015.1 |
| 20260830060038 | 88 | 0 | 0.0 | 4.0 | 0.00 | 0.00 | 0.00 | 48 | 1015.1 |
| 20260830055520 | 88 | 0 | 1.0 | 4.0 | 0.00 | 0.00 | 0.00 | 48 | 1015.3 |
| 20260830055020 | 88 | 0 | 0.0 | 2.0 | 0.00 | 0.00 | 0.00 | 46 | 1015.2 |
| 20260830054546 | 88 | 0 | 0.0 | 3.0 | 0.00 | 0.00 | 0.00 | 46 | 1015.1 |
| 20260830054025 | 88 | 0 | 0.0 | 4.0 | 0.00 | 0.00 | 0.00 | 46 | 1015.1 |
| 20260830053518 | 88 | 196 | 0.0 | 4.0 | 0.00 | 0.00 | 0.00 | 46 | 1015.1 |
| 20260830053045 | 88 | 205 | 1.0 | 4.0 | 0.00 | 0.00 | 0.00 | 46 | 1015.1 |
| 20260830052522 | 88 | 197 | 0.0 | 3.0 | 0.00 | 0.00 | 0.00 | 45 | 1015.1 |
| 20260830052016 | 89 | 0 | 0.0 | 3.0 | 0.00 | 0.00 | 0.00 | 45 | 1015.1 |
| 20260830051546 | 89 | 0 | 0.0 | 5.0 | 0.00 | 0.00 | 0.00 | 45 | 1015.1 |
| 20260830051022 | 89 | 0 | 0.0 | 7.0 | 0.00 | 0.00 | 0.00 | 45 | 1015.2 |
| 20260830050518 | 89 | 175 | 2.0 | 7.0 | 0.00 | 0.00 | 0.00 | 45 | 1015.2 |
| 20260830050041 | 89 | 0 | 0.0 | 6.0 | 0.00 | 0.00 | 0.00 | 44 | 1015.1 |
| 20260830045519 | 89 | 196 | 1.0 | 6.0 | 0.00 | 0.00 | 0.00 | 44 | 1015.1 |
| 20260830045019 | 89 | 0 | 0.0 | 4.0 | 0.00 | 0.00 | 0.00 | 44 | 1015.1 |
| 20260830044551 | 89 | 236 | 0.0 | 4.0 | 0.00 | 0.00 | 0.00 | 44 | 1015.1 |
| 20260830044019 | 90 | 0 | 0.0 | 4.0 | 0.00 | 0.00 | 0.00 | 43 | 1015.1 |
| 20260830043517 | 90 | 0 | 0.0 | 4.0 | 0.00 | 0.00 | 0.00 | 43 | 1015.1 |
| 20260830043037 | 90 | 214 | 0.0 | 4.0 | 0.00 | 0.00 | 0.00 | 43 | 1015.2 |
| 20260830042516 | 90 | 0 | 0.0 | 3.0 | 0.00 | 0.00 | 0.00 | 43 | 1015.1 |
| 20260830042023 | 90 | 0 | 0.0 | 4.0 | 0.00 | 0.00 | 0.00 | 42 | 1015.1 |
| 20260830041607 | 90 | 205 | 0.0 | 4.0 | 0.00 | 0.00 | 0.00 | 43 | 1015.2 |
| 20260830041021 | 90 | 0 | 0.0 | 3.0 | 0.00 | 0.00 | 0.00 | 43 | 1015.1 |
| 20260830040518 | 90 | 0 | 0.0 | 3.0 | 0.00 | 0.00 | 0.00 | 42 | 1015.1 |
| 20260830040048 | 91 | 0 | 0.0 | 3.0 | 0.00 | 0.00 | 0.00 | 42 | 1015.0 |
| 20260830035517 | 91 | 181 | 0.0 | 3.0 | 0.00 | 0.00 | 0.00 | 41 | 1015.0 |
| 20260830035020 | 91 | 0 | 0.0 | 7.0 | 0.00 | 0.00 | 0.00 | 41 | 1014.9 |
| 20260830034540 | 91 | 214 | 0.0 | 7.0 | 0.00 | 0.00 | 0.00 | 41 | 1015.0 |
| 20260830034019 | 91 | 0 | 0.0 | 3.0 | 0.00 | 0.00 | 0.00 | 41 | 1014.9 |
| 20260830033520 | 91 | 0 | 0.0 | 4.0 | 0.00 | 0.00 | 0.00 | 41 | 1014.9 |
| 20260830033039 | 92 | 0 | 0.0 | 5.0 | 0.00 | 0.00 | 0.00 | 40 | 1014.8 |
| 20260830032519 | 92 | 200 | 1.0 | 5.0 | 0.00 | 0.00 | 0.00 | 40 | 1014.8 |
| 20260830032020 | 92 | 183 | 0.0 | 5.0 | 0.00 | 0.00 | 0.00 | 40 | 1014.8 |
| 20260830031538 | 92 | 0 | 1.0 | 7.0 | 0.00 | 0.00 | 0.00 | 40 | 1014.7 |
| 20260830031020 | 92 | 220 | 1.0 | 7.0 | 0.00 | 0.00 | 0.00 | 40 | 1014.7 |
| 20260830030521 | 92 | 206 | 1.0 | 7.0 | 0.00 | 0.00 | 0.00 | 39 | 1014.6 |
| 20260830030039 | 92 | 200 | 2.0 | 7.0 | 0.00 | 0.00 | 0.00 | 39 | 1014.6 |
| 20260830025522 | 92 | 0 | 0.0 | 5.0 | 0.00 | 0.00 | 0.00 | 39 | 1014.6 |
| 20260830025018 | 92 | 0 | 0.0 | 3.0 | 0.00 | 0.00 | 0.00 | 39 | 1014.5 |
| 20260830024546 | 92 | 0 | 0.0 | 3.0 | 0.00 | 0.00 | 0.00 | 39 | 1014.5 |
| 20260830024018 | 92 | 192 | 0.0 | 4.0 | 0.00 | 0.00 | 0.00 | 39 | 1014.4 |
| 20260830023520 | 92 | 0 | 0.0 | 4.0 | 0.00 | 0.00 | 0.00 | 39 | 1014.3 |
| 20260830023052 | 92 | 0 | 0.0 | 4.0 | 0.00 | 0.00 | 0.00 | 38 | 1014.3 |
| 20260830022520 | 93 | 194 | 0.0 | 4.0 | 0.00 | 0.00 | 0.00 | 38 | 1014.4 |
| 20260830022018 | 93 | 185 | 0.0 | 4.0 | 0.00 | 0.00 | 0.00 | 39 | 1014.4 |
| 20260830021537 | 93 | 0 | 0.0 | 4.0 | 0.00 | 0.00 | 0.00 | 39 | 1014.2 |
| 20260830021020 | 93 | 0 | 0.0 | 4.0 | 0.00 | 0.00 | 0.00 | 39 | 1014.2 |
| 20260830020516 | 93 | 0 | 0.0 | 3.0 | 0.00 | 0.00 | 0.00 | 38 | 1014.0 |
| 20260830020036 | 93 | 0 | 0.0 | 4.0 | 0.00 | 0.00 | 0.00 | 38 | 1013.9 |
| 20260830015521 | 93 | 209 | 0.0 | 5.0 | 0.00 | 0.00 | 0.00 | 38 | 1013.9 |
| 20260830015018 | 93 | 0 | 0.0 | 5.0 | 0.00 | 0.00 | 0.00 | 39 | 1013.9 |